Notices

What's New in latest Release from April 7th, 2021:

- Updated Glossary, including Speed of Maximum Gust, and Total Hourly Precipitation

- Updated national and regional climate services offices contacts and prices information

- Addition of station inventory lists for 1981-2010, 1971-2000, and 1961-1990 Normals.

If you haven't already, please take our survey and provide feedback about our website: https://eccc.sondage-survey.ca/f/LanguageSelection.aspx?s=442ca660-fcf1-47c0-95a9-59707d6fd709

Hourly Data Report for July 10, 2020

TORONTO CITY
ONTARIO
Current Station Operator: ECCC - MSC

43°40'00.000" N
79°24'00.000" W
112.50 m
6158355
71508
XTO

Download Data

Hourly Data (July 2020)
Hourly Data Report for July 10, 2020
TIME
LST
Temp Definition
°C
Dew Point Definition
°C
Rel Hum Definition
%
Precip. Amount Definition
mm

Wind Dir Definition
10's deg

Wind Spd Definition
km/h
Visibility Definition
km
Stn Press Definition
kPa
Hmdx Definition


Wind Chill Definition


Weather Definition


00:00 25.7 19.7 70 0.0       99.91 33   LegendNANA
01:00 25.4 19.8 71 0.0       99.89 33   LegendNANA
02:00 25.5 19.6 70 0.0       99.84 33   LegendNANA
03:00 24.8 19.1 71 0.0       99.79 32   LegendNANA
04:00 24.5 19.0 71 0.0       99.79 31   LegendNANA
05:00 24.2 19.1 73 0.0       99.78 31   LegendNANA
06:00 25.3 19.3 70 0.0       99.80 32   LegendNANA
07:00 25.7 20.5 73 0.0       99.80 34   LegendNANA
08:00 26.8 18.5 60 0.0       99.80 33   LegendNANA
09:00 28.0 19.2 59 0.0       99.77 35   LegendNANA
10:00 28.9 19.3 56 0.0       99.75 36   LegendNANA
11:00 29.0 18.3 52 0.0       99.73 35   LegendNANA
12:00 29.8 18.3 50 0.0       99.69 36   LegendNANA
13:00 30.1 19.1 52 0.0       99.58 37   LegendNANA
14:00 29.9 18.4 50 0.2       99.52 36   LegendNANA
15:00 29.9 18.0 49 0.0       99.48 36   LegendNANA
16:00 30.5 18.8 50 0.0       99.39 37   LegendNANA
17:00 30.2 18.9 51 0.2       99.37 37   LegendNANA
18:00 29.6 19.8 56 0.0       99.31 37   LegendNANA
19:00 28.8 19.9 59 0.0       99.27 36   LegendNANA
20:00 27.9 20.1 63 0.0       99.24 36   LegendNANA
21:00 26.0 17.8 61 0.0       99.29 32   LegendNANA
22:00 25.8 17.7 61 0.0       99.22 32   LegendNANA
23:00 23.3 19.1 77 0.0       99.29 30   LegendNANA

Notes on Data Quality.

Legend

  • E = Estimated
  • M = Missing
  • NA = Not Available*
  • [empty] = Indicates an unobserved value
Date modified: